Location: Newark
(45.4041°N, 17.9426°E)
Time: 02:26:56
(UTC+00:00)

Envisat - Pass Details

Date: 01 October 2019
Orbit: 764 x 766 km, 98.1° (Epoch: 16 October)

Event Time Altitude Azimuth Distance (km) Brightness Sun altitude
Rises 17:34:07 0° 189° (S) 3,218 6.2 -12.2°
Reaches altitude 10° 17:36:35 10° 197° (SSW) 2,297 5.6 -12.6°
Maximum altitude 17:41:13 36° 264° (W) 1,210 4.7 -13.4°
Drops below altitude 10° 17:45:53 10° 330° (NNW) 2,312 6.0 -14.2°
Sets 17:48:24 0° 339° (NNW) 3,243 6.7 -14.7°
